sat.trackr.live / text

‹ back to catalog

YAOGAN-30 06C

NORAD 44451 · 2019-045C

PAYLOAD ACTIVE UNKNOWN

§ Identity

Operator
Country
PRC
Launch date
2019-07-26
Launch site
XICLF
Launch vehicle
Mass (kg)
RCS (m²)

External: N2YO · Heavens-Above · Gunter

§ Orbital elements

Epoch: 2026-09-20T01:24:23.561856Z

Period
95.80 min
Inclination
34.9927°
Eccentricity
0.0000559
Mean motion
15.03059501 rev/d
Perigee alt
557.1 km
Apogee alt
557.9 km
Semi-major
6,935.6 km
B*
1.2524e-4
RAAN
111.0914°
Arg perigee
271.0839°
Mean anomaly
88.9805°
Rev number
39,083

§ Raw data

YAOGAN-30 06C1 44451U 19045C   26263.05860604  .00001693  00000+0  12524-3 0  99902 44451  34.9927 111.0914 0000559 271.0839  88.9805 15.03059501390830

JSON: /api/v1/satellites/44451 · /tle

For live sub-satellite position, see the globe view (requires WebGL).

§ Visibility from observer

Set your observer location to see the next 7 days of passes ≥ 10°. The values pass through the URL so the page stays shareable.

No JS? Fill the form by hand. The geolocation button needs JavaScript.